Location: *
(40.7873°S, 98.7174°E)
Time: 23:26:54
(UTC+00:00)

Hubble Space Telescope - Pass Details

Date: 18 August 2022
Orbit: 532 x 535 km, 28.5° (Epoch: 23 September)

Event Time Altitude Azimuth Distance (km) Brightness Sun altitude
Exits shadow 23:04:36 - 316° (NW) 2,011 3.3 -12.9°
Reaches altitude 10° 23:06:42 10° 343° (NNW) 1,782 3.3 -12.5°
Maximum altitude 23:06:53 10° 346° (NNW) 1,781 3.3 -12.5°
Drops below altitude 10° 23:07:02 10° 348° (NNW) 1,782 3.4 -12.5°
Sets 23:11:46 0° 36° (NE) 2,666 5.0 -11.6°
